Tracking 22836 objects as of 16-Apr-2021
HD Live streaming from Space Station
objects crossing your sky now

STARLINK-1905

Track STARLINK-1905 now!
10-day predictions
STARLINK-1905 is classified as:


NORAD ID: 46746
Int'l Code: 2020-074H
Perigee: 553.9 km
Apogee: 554.8 km
Inclination: 53.1 °
Period: 95.6 minutes
Semi major axis: 6925 km
RCS: Unknown
Launch date: October 24, 2020
Source: United States (US)
Launch site: AIR FORCE EASTERN TEST RANGE (AFETR)
aabbcc
Your satellite tracking list
Your tracking list is empty




NASA's NSSDC Master Catalog

Two Line Element Set (TLE):
1 46746U 20074H   21106.18077368 -.00001089  00000-0 -54226-4 0  9993
2 46746  53.0553  70.5345 0000683  63.5697 296.5362 15.06398593 27110
Source of the keplerian elements: AFSPC